• In Belarus
  • List of Countries
  • For 7 days
  • Water Temperature
  • Satellite Maps
  • Weather Map
  • Weather Widgets
  • user-avatar
    Login

    Hourly Weather Recife

    Today, 20 October, Friday

    Time Temperature Precipitation Wind Pressure Humidity
    00:00 +26°C° 0.1 mm 5 mps 760 mmHg 85%
    01:00 +26°C° 0.1 mm 5 mps 760 mmHg 86%
    02:00 +26°C° 0.3 mm 5 mps 759 mmHg 87%
    03:00 +26°C° 0.3 mm 5 mps 759 mmHg 88%
    04:00 +26°C° 0.3 mm 5 mps 759 mmHg 89%
    05:00 +26°C° 0.2 mm 5 mps 759 mmHg 88%
    06:00 +27°C° 0.2 mm 5 mps 759 mmHg 86%
    07:00 +27°C° 0.2 mm 5 mps 759 mmHg 85%
    08:00 +28°C° 0.2 mm 5 mps 759 mmHg 80%
    09:00 +29°C° 0.2 mm 6 mps 760 mmHg 74%
    10:00 +32°C° 0.2 mm 6 mps 760 mmHg 68%
    11:00 +32°C° 0.2 mm 6 mps 760 mmHg 67%
    12:00 +32°C° 0.2 mm 6 mps 760 mmHg 66%
    13:00 +33°C° 0.2 mm 6 mps 760 mmHg 64%
    14:00 +32°C° 0.1 mm 6 mps 759 mmHg 66%
    15:00 +32°C° 0.1 mm 6 mps 759 mmHg 67%
    16:00 +30°C° 0.1 mm 6 mps 758 mmHg 68%
    17:00 +29°C° 0 mm 6 mps 759 mmHg 72%
    18:00 +28°C° 0 mm 6 mps 759 mmHg 76%
    19:00 +27°C° 0 mm 6 mps 759 mmHg 80%
    20:00 +27°C° 0 mm 5 mps 760 mmHg 80%
    21:00 +27°C° 0 mm 5 mps 760 mmHg 81%
    22:00 +27°C° 0 mm 5 mps 760 mmHg 81%
    23:00 +27°C° 0.1 mm 5 mps 760 mmHg 81%

    Tomorrow, 21 October, Saturday

    Time Temperature Precipitation Wind Pressure Humidity
    00:00 +26°C° 0.1 mm 5 mps 760 mmHg 81%
    01:00 +26°C° 0.1 mm 5 mps 760 mmHg 81%
    02:00 +26°C° 0.1 mm 5 mps 759 mmHg 81%
    03:00 +26°C° 0.1 mm 5 mps 759 mmHg 81%
    04:00 +26°C° 0.1 mm 5 mps 758 mmHg 81%
    05:00 +27°C° 0.2 mm 5 mps 759 mmHg 81%
    06:00 +27°C° 0.2 mm 5 mps 759 mmHg 80%
    07:00 +27°C° 0.2 mm 5 mps 759 mmHg 80%
    08:00 +28°C° 0.2 mm 5 mps 760 mmHg 77%
    09:00 +28°C° 0.2 mm 6 mps 760 mmHg 74%
    10:00 +29°C° 0.2 mm 6 mps 761 mmHg 71%
    11:00 +30°C° 0.1 mm 6 mps 761 mmHg 66%
    12:00 +32°C° 0.1 mm 6 mps 760 mmHg 62%
    13:00 +33°C° 0.1 mm 6 mps 760 mmHg 58%
    14:00 +32°C° 0 mm 6 mps 760 mmHg 60%
    15:00 +32°C° 0 mm 6 mps 759 mmHg 62%
    16:00 +30°C° 0 mm 6 mps 759 mmHg 63%
    17:00 +29°C° 0.1 mm 5 mps 759 mmHg 68%
    18:00 +29°C° 0.1 mm 5 mps 759 mmHg 73%
    19:00 +28°C° 0.1 mm 5 mps 760 mmHg 78%
    20:00 +27°C° 0.2 mm 5 mps 760 mmHg 79%
    21:00 +27°C° 0.2 mm 5 mps 761 mmHg 81%
    22:00 +27°C° 0.2 mm 5 mps 761 mmHg 82%
    23:00 +27°C° 0.2 mm 5 mps 761 mmHg 83%

    Day after tomorrow, 22 October, Sunday

    Time Temperature Precipitation Wind Pressure Humidity
    00:00 +26°C° 0.2 mm 5 mps 760 mmHg 84%
    01:00 +26°C° 0.2 mm 5 mps 760 mmHg 84%
    02:00 +26°C° 0.1 mm 5 mps 760 mmHg 84%
    03:00 +26°C° 0.1 mm 5 mps 759 mmHg 84%
    04:00 +26°C° 0.1 mm 5 mps 759 mmHg 85%
    05:00 +26°C° 0.1 mm 5 mps 759 mmHg 84%
    06:00 +27°C° 0.1 mm 5 mps 759 mmHg 83%
    07:00 +27°C° 0.1 mm 5 mps 760 mmHg 82%
    08:00 +28°C° 0.1 mm 5 mps 760 mmHg 75%
    09:00 +29°C° 0.1 mm 6 mps 761 mmHg 69%
    10:00 +32°C° 0.1 mm 6 mps 761 mmHg 63%
    11:00 +32°C° 0.1 mm 6 mps 760 mmHg 62%
    12:00 +32°C° 0.1 mm 6 mps 760 mmHg 60%
    13:00 +32°C° 0.1 mm 7 mps 760 mmHg 59%
    14:00 +32°C° 0.1 mm 6 mps 759 mmHg 60%
    15:00 +32°C° 0.1 mm 6 mps 759 mmHg 61%
    16:00 +30°C° 0.1 mm 6 mps 758 mmHg 62%
    17:00 +29°C° 0 mm 6 mps 758 mmHg 66%
    18:00 +28°C° 0 mm 5 mps 759 mmHg 70%
    19:00 +27°C° 0 mm 5 mps 759 mmHg 74%
    20:00 +27°C° 0 mm 4 mps 759 mmHg 76%
    21:00 +26°C° 0 mm 4 mps 760 mmHg 77%
    22:00 +26°C° 0 mm 4 mps 760 mmHg 78%
    23:00 +26°C° 0.1 mm 4 mps 759 mmHg 80%

    23 October, Monday

    Time Temperature Precipitation Wind Pressure Humidity
    00:00 +26°C° 0.1 mm 4 mps 759 mmHg 81%
    01:00 +25°C° 0.1 mm 4 mps 758 mmHg 83%
    02:00 +25°C° 0.1 mm 4 mps 758 mmHg 83%
    03:00 +25°C° 0.1 mm 4 mps 758 mmHg 84%
    04:00 +25°C° 0.1 mm 4 mps 758 mmHg 85%
    05:00 +25°C° 0.1 mm 4 mps 758 mmHg 83%
    06:00 +26°C° 0.1 mm 4 mps 758 mmHg 81%
    07:00 +26°C° 0.1 mm 4 mps 759 mmHg 80%
    08:00 +27°C° 0.1 mm 4 mps 759 mmHg 75%
    09:00 +28°C° 0.1 mm 4 mps 759 mmHg 70%
    10:00 +29°C° 0.1 mm 5 mps 760 mmHg 65%
    11:00 +30°C° 0 mm 4 mps 759 mmHg 62%
    12:00 +30°C° 0 mm 4 mps 759 mmHg 59%
    13:00 +32°C° 0 mm 4 mps 758 mmHg 57%
    14:00 +32°C° 0 mm 4 mps 758 mmHg 57%
    15:00 +32°C° 0 mm 4 mps 758 mmHg 57%
    16:00 +30°C° 0 mm 4 mps 757 mmHg 57%
    17:00 +29°C° 0 mm 4 mps 757 mmHg 63%
    18:00 +28°C° 0 mm 4 mps 758 mmHg 69%
    19:00 +27°C° 0 mm 4 mps 758 mmHg 75%
    20:00 +26°C° 0 mm 4 mps 758 mmHg 77%
    21:00 +26°C° 0 mm 4 mps 759 mmHg 79%
    22:00 +26°C° 0 mm 3 mps 759 mmHg 81%
    23:00 +26°C° 0 mm 3 mps 759 mmHg 82%

    24 October, Tuesday

    Time Temperature Precipitation Wind Pressure Humidity
    00:00 +26°C° 0 mm 3 mps 758 mmHg 82%
    01:00 +26°C° 0 mm 3 mps 758 mmHg 83%
    02:00 +25°C° 0 mm 3 mps 758 mmHg 83%
    03:00 +25°C° 0 mm 3 mps 758 mmHg 84%
    04:00 +25°C° 0 mm 3 mps 757 mmHg 84%
    05:00 +26°C° 0 mm 4 mps 758 mmHg 83%
    06:00 +26°C° 0 mm 4 mps 758 mmHg 81%
    07:00 +26°C° 0 mm 4 mps 759 mmHg 79%
    08:00 +28°C° 0 mm 4 mps 759 mmHg 73%
    09:00 +29°C° 0 mm 5 mps 759 mmHg 66%
    10:00 +32°C° 0 mm 5 mps 759 mmHg 60%
    11:00 +32°C° 0 mm 5 mps 759 mmHg 59%
    12:00 +32°C° 0 mm 5 mps 759 mmHg 58%
    13:00 +33°C° 0 mm 5 mps 758 mmHg 56%
    14:00 +32°C° 0 mm 5 mps 758 mmHg 58%
    15:00 +32°C° 0 mm 5 mps 758 mmHg 59%
    16:00 +32°C° 0 mm 5 mps 758 mmHg 61%
    17:00 +29°C° 0 mm 5 mps 758 mmHg 66%
    18:00 +28°C° 0 mm 5 mps 759 mmHg 71%
    19:00 +27°C° 0 mm 5 mps 759 mmHg 76%
    20:00 +27°C° 0 mm 5 mps 759 mmHg 77%
    21:00 +27°C° 0 mm 5 mps 759 mmHg 79%
    22:00 +26°C° 0 mm 4 mps 759 mmHg 81%
    23:00 +26°C° 0.1 mm 5 mps 759 mmHg 82%

    25 October, Wednesday

    Time Temperature Precipitation Wind Pressure Humidity
    00:00 +26°C° 0.1 mm 5 mps 759 mmHg 84%
    01:00 +26°C° 0.1 mm 5 mps 759 mmHg 85%
    02:00 +26°C° 0.1 mm 4 mps 758 mmHg 86%
    03:00 +26°C° 0.1 mm 4 mps 758 mmHg 86%
    04:00 +26°C° 0.1 mm 4 mps 758 mmHg 87%
    05:00 +26°C° 0.1 mm 5 mps 758 mmHg 85%
    06:00 +26°C° 0.1 mm 5 mps 759 mmHg 84%
    07:00 +27°C° 0.1 mm 5 mps 759 mmHg 82%
    08:00 +28°C° 0.1 mm 5 mps 759 mmHg 76%
    09:00 +29°C° 0.1 mm 5 mps 759 mmHg 70%
    10:00 +32°C° 0.1 mm 5 mps 760 mmHg 63%
    11:00 +30°C° 0.1 mm 5 mps 759 mmHg 64%
    12:00 +30°C° 0.1 mm 5 mps 759 mmHg 64%
    13:00 +30°C° 0.1 mm 5 mps 759 mmHg 65%
    14:00 +30°C° 0.1 mm 5 mps 758 mmHg 64%
    15:00 +30°C° 0.1 mm 5 mps 758 mmHg 63%
    16:00 +30°C° 0.1 mm 6 mps 758 mmHg 62%
    17:00 +29°C° 0 mm 5 mps 758 mmHg 66%
    18:00 +28°C° 0 mm 5 mps 758 mmHg 70%
    19:00 +27°C° 0 mm 5 mps 758 mmHg 74%
    20:00 +27°C° 0 mm 5 mps 758 mmHg 75%
    21:00 +27°C° 0 mm 5 mps 759 mmHg 77%
    22:00 +27°C° 0 mm 4 mps 759 mmHg 78%
    23:00 +27°C° 0.1 mm 4 mps 759 mmHg 78%
    Show more